Location: Recife
(8.0585°S, 34.8848°W)
Time: 12:36:22
(UTC-03:00)

Vanguard 2 - Pass Details

Date: 17 April 2026
Orbit: 554 x 2894 km, 32.9° (Epoch: 7 May)

Event Time Altitude Azimuth Distance (km) Brightness Sun altitude
Rises 01:58:12 0° 235° (SW) 6,738 - -50.7°
Reaches altitude 10° 02:03:58 10° 225° (SW) 5,671 - -49.3°
Exits shadow 02:16:06 28° 180° (S) 3,898 10.9 -46.3°
Maximum altitude 02:17:39 29° 171° (S) 3,790 10.9 -45.9°
Drops below altitude 10° 02:28:08 10° 115° (ESE) 4,339 11.8 -43.4°
Sets 02:31:46 0° 104° (ESE) 4,991 12.4 -42.5°
